Satellite-Ground Cal/Val Site Overpasses Predictions

Prediction of Satellite NPP Overpassing Cal/Val Site: Antarctic Dome C

Ground Cal/Val Site Location: Latitude: -75.10, Longitude: 123.35; Satellite-Ground Site NADIR distance within 100 km.

Table of predicted overpasses for the next 14.0 days since TLE Epoch: 3/24/2018
Interval Starting Time Ending Time Minimum Distance Time Minimum Distance (km)
1 03/24/2018 07:18:41 03/24/2018 07:19:00 03/24/2018 07:18:51 75.44
2 03/26/2018 15:00:56 03/26/2018 15:01:20 03/26/2018 15:01:08 57.71
3 03/27/2018 14:42:07 03/27/2018 14:42:32 03/27/2018 14:42:20 51.41
4 03/28/2018 07:43:48 03/28/2018 07:44:08 03/28/2018 07:43:58 70.03
5 03/29/2018 07:24:56 03/29/2018 07:25:23 03/29/2018 07:25:10 37.93
6 03/31/2018 15:07:23 03/31/2018 15:07:31 03/31/2018 15:07:27 95.58
7 04/01/2018 14:48:23 04/01/2018 14:48:52 04/01/2018 14:48:37 15.64
8 04/03/2018 07:31:14 04/03/2018 07:31:43 04/03/2018 07:31:28 2.01


NCC Satellite Cal/Val Overpasses Prediction Service
